Simultaneous Nadir Overpasses (SNOs) Predictions

Prediction of SNOs between GOES-15 and TERRA Satellite Orbit:

Table of predicted SNOs for the next 14.0 days since TLE Epoch: 12/2/2013
Index Date Time (GOES-15) GOES-15 Lat,Lon TERRA Lat,Lon Distance(km) Time Diff (sec)
1 12/02/2013 19:25:03 -0.16,-135.40 -0.42,-134.17 139.53 80
2 12/03/2013 07:49:07 0.14,-135.43 -0.70,-139.36 446.50 80
3 12/04/2013 19:12:52 -0.16,-135.37 -1.05,-131.22 472.91 80
4 12/05/2013 07:36:56 0.14,-135.41 -0.07,-136.40 113.29 80
5 12/07/2013 07:22:05 0.14,-135.38 0.58,-133.45 219.57 80
6 12/07/2013 19:45:59 -0.11,-135.33 0.55,-138.60 371.61 80
7 12/09/2013 19:33:48 -0.12,-135.29 -0.05,-135.64 38.94 80
8 12/11/2013 19:18:56 -0.12,-135.26 -0.67,-132.67 293.39 80
9 12/12/2013 07:42:59 0.10,-135.29 -0.44,-137.87 292.80 80
10 12/14/2013 07:28:07 0.11,-135.25 0.19,-134.91 38.98 80




NCC Satellite Simultaneous Nadir Overpasses (SNOs) Prediction Service
